www.pogodaiklimat.ru

Погода и климат >> Архив погоды >> Оман >> Al Mudhaibi


ПОГОДА в Al Mudhaibi

  • Прогноз погоды в Al Mudhaibi
  • Монитор погоды в Al Mudhaibi
  • Климат города

АРХИВ ПОГОДЫ в Al Mudhaibi

Время (UTC), дата Ветер
(напр.,м/с)
 
Видим.   Явления Облачность Т
(С)
Тd
(С)
f
(%)
Тe
(С)
Тes
(С)
Комфортность P
(гПа)
Po
(гПа)
Тmin
(С)
Tmax
(С)
R
(мм)
R24
(мм)
S
(см)
06 19.05 ЮЗ 3 н/о н/о +33.2 +17.7 40 +37 +37 очень
душно
1008.2 967.7 +26.4
09 19.05 ЮЗ 6 н/о н/о +38.2 +12.8 22 +38 +38 очень
жарко
1005.1 965.3
12 19.05 З 5 н/о н/о +40.4 +9.7 16 +39 +39 очень
жарко
1002.4 963.0
15 19.05 З 5 н/о н/о +38.7 +9.1 17 +37 +37 очень
жарко
1003.0 963.4
18 19.05 Ю 8 н/о н/о +32.7 +20.3 48 +39 +39 очень
душно
1005.0 964.7 +41.2
21 19.05 ЮЗ 6 н/о н/о +30.7 +18.7 49 +36 +36 очень
душно
1005.0 964.4
00 20.05 ЮВ 3 н/о н/о +28.6 +19.6 58 +34 +34 очень
душно
1005.7 964.8
03 20.05 ЮВ 3 н/о н/о +28.8 +21.1 63 +36 +36 очень
душно
1007.6 966.7
06 20.05 ЮЗ 4 н/о н/о +33.0 +19.0 44 +38 +38 очень
душно
1007.2 966.8 +27.9
09 20.05 ЮЗ 5 н/о н/о +38.1 +14.3 24 +39 +39 очень
душно
1003.5 963.8
12 20.05 З 4 н/о н/о +41.0 +9.0 15 +39 +39 очень
жарко
1000.0 960.8
18 20.05 Ю 5 н/о н/о +33.7 +19.2 42 +39 +39 очень
душно
1001.8 961.7 +41.7
21 20.05 В 2 н/о н/о +31.3 +17.6 44 +35 +35 очень
душно
1002.3 961.8
00 21.05 В 5 н/о н/о +27.8 +21.1 67 +35 +35 очень
душно
1002.2 961.3
03 21.05 В 5 н/о н/о +27.8 +20.9 66 +35 +35 очень
душно
1003.9 963.0
06 21.05 ЮЗ 4 н/о н/о +32.7 +16.1 37 +35 +35 душно 1004.4 964.1 +26.9
09 21.05 Ю 5 н/о н/о +38.7 +9.2 17 +37 +37 очень
жарко
1001.2 961.6
12 21.05 З 3 н/о н/о +41.1 +5.9 12 +38 +38 очень
жарко
998.3 959.1
15 21.05 Ю 4 н/о н/о +39.8 +4.3 11 +37 +37 очень
жарко
998.6 959.3
18 21.05 ЮВ 6 н/о н/о +32.5 +18.4 43 +37 +37 очень
душно
1001.9 961.7 +42.1
21 21.05 ЮВ 2 н/о н/о +28.5 +22.4 70 +37 +37 очень
душно
1003.0 962.3
00 22.05 В 2 н/о н/о +27.2 +22.8 77 +36 +36 очень
душно
1003.2 962.2
03 22.05 ЮВ 5 н/о н/о +27.3 +23.5 80 +37 +37 очень
душно
1005.1 964.1
06 22.05 Ю 2 н/о н/о +33.6 +15.9 35 +36 +36 очень
душно
1005.4 965.1 +26.5
09 22.05 ЮЗ 5 н/о н/о +37.4 +14.3 25 +38 +38 душно 1003.6 963.8
12 22.05 ЮЗ 4 н/о н/о +39.7 +13.8 22 +40 +40 очень
душно
1001.4 962.0
15 22.05 Ю 5 н/о н/о +38.4 +12.6 22 +38 +38 очень
жарко
1001.9 962.3
18 22.05 Ю 6 н/о н/о +33.8 +13.7 30 +35 +35 очень
жарко
1004.5 964.3 +40.4
21 22.05 ЮЗ 7 н/о н/о +29.5 +17.2 48 +34 +34 очень
душно
1006.0 965.2
00 23.05 ЮВ 3 н/о н/о +27.6 +20.1 64 +34 +34 очень
душно
1006.6 965.5
03 23.05 ЮВ 2 н/о н/о +27.9 +19.6 61 +34 +34 очень
душно
1008.4 967.3
06 23.05 ЮЗ 3 н/о н/о +32.4 +17.8 42 +37 +37 очень
душно
1008.0 967.5 +26.8
09 23.05 ЮЗ 4 н/о н/о +38.4 +14.9 25 +39 +39 очень
душно
1005.3 965.6
12 23.05 ЮЗ 3 н/о н/о +39.0 +10.7 18 +38 +38 очень
жарко
1002.9 963.3
15 23.05 Ю 5 н/о н/о +38.0 +10.9 20 +37 +37 очень
жарко
1003.3 963.6
18 23.05 Ю 5 н/о н/о +34.2 +19.0 41 +39 +39 очень
душно
1005.3 965.2 +40.2
21 23.05 Ю 2 н/о н/о +29.8 +22.8 66 +39 +39 очень
душно
1005.9 965.2
00 24.05 Ю 2 н/о н/о +28.1 +23.2 75 +38 +38 очень
душно
1006.6 965.6
03 24.05 Ю 3 н/о н/о +27.1 +23.8 82 +37 +37 очень
душно
1008.9 967.8
06 24.05 Ю 3 н/о н/о +32.0 +21.2 53 +40 +40 очень
душно
1008.3 967.7 +26.7
09 24.05 Ю 4 н/о н/о +37.6 +18.5 33 +42 +42 опасность
перегрева
1005.3 965.5
12 24.05 СЗ 2 н/о н/о +40.2 +11.5 18 +39 +39 очень
жарко
1002.3 962.9
15 24.05 Ю 3 н/о н/о +39.0 +7.7 15 +37 +37 очень
жарко
1002.1 962.5
18 24.05 Ю 7 н/о н/о +34.2 +18.9 41 +39 +39 очень
душно
1004.6 964.4 +41.1
21 24.05 Ю 4 н/о н/о +30.2 +22.4 63 +39 +39 очень
душно
1005.7 965.1
00 25.05 ЮВ 4 н/о н/о +28.1 +23.1 74 +38 +38 очень
душно
1006.2 965.3
03 25.05 Ю 2 н/о н/о +28.4 +23.3 74 +38 +38 очень
душно
1007.5 966.6
06 25.05 ЮВ 2 н/о н/о +33.4 +21.8 51 +42 +42 опасность
перегрева
1007.3 967.0 +27.5
09 25.05 З 3 н/о н/о +38.3 +16.8 28 +41 +41 опасность
перегрева
1004.1 964.5
12 25.05 ЮЗ 3 н/о н/о +42.0 +11.7 17 +41 +41 опасность
перегрева
1001.2 962.0
15 25.05 ЮЗ 4 н/о н/о +40.2 +10.0 16 +39 +39 очень
жарко
1001.6 962.2
18 25.05 ЮЗ 5 н/о н/о +36.7 +12.0 23 +36 +36 очень
жарко
1003.5 963.6 +42.3
21 25.05 Ю 4 н/о н/о +31.4 +21.2 55 +39 +39 очень
душно
1004.1 963.7
00 26.05 Ю 1 н/о н/о +29.7 +20.1 56 +36 +36 очень
душно
1005.0 964.3
03 26.05 Ю 2 н/о н/о +29.5 +17.7 49 +34 +34 очень
душно
1006.1 965.3

 

Местоположение метеостанции Al Mudhaibi (Оман): широта 22.51 долгота 58.13 высота над уровнем моря 378 м.

В архиве по умолчанию представлена погода в Al Mudhaibi за последнюю неделю. Архивные данные за месяц целиком и за предыдущие месяцы, начиная с января 2011 года, Вы можете получить, выбрав интересующий диапазон дат из раскрывающегося списка и нажав кнопку "Ввод!".

Внимание! Время в таблицах - всемирное. Для получения местного времени необходимо прибавить поправку, которая в Al Mudhaibi равна 4 ч.

Смотрите также архив погоды в соседних городах и на ближайших метеорологических станциях:

Погода в Ibra (Оман) (45 км)
Погода в Adam (Оман) (64 км)
Погода в Nizwa (Оман) (72 км)
Погода в Bidiya (Оман) (74 км)
Погода в Saiq (Оман) (81 км)
Погода в Samail (Оман) (90 км)
Погода в Bahla (Оман) (100 км)
Погода в Al Amerat (Оман) (116 км)
Погода в Jabal Shams (Оман) (120 км)
Погода в Seeb (Оман) (120 км)

Пояснения к столбцам:

Ветер - указаны скорость ветра в м/с - средняя за 10 мин, порывы в срок и между сроками (в фигурных скобках) и направление, откуда дует ветер: С - северный, СВ - северо-восточный, В - восточный, ЮВ - юго-восточный, Ю - южный, ЮЗ - юго-западный, З - западный, СЗ - северо-западный.
Видимость - горизонтальная дальность видимости в метрах или километрах. При видимости от 1 до 10 км при отсутствии осадков обычно наблюдается дымка, при ухудшении видимости до 1 км и менее - туман. В сухую погоду видимость может ухудшаться дымом, пылью или мглою.
Явления - указаны атмосферные явления, наблюдавшиеся в срок или в последний час перед сроком; фигурными скобками обозначены явления, наблюдавшиеся между сроками (за 1-3 часа до срока); квадратными скобками обозначены град или гололедные отложения с указанием их диаметра в мм.
Облачность - указаны через наклонную черту общая и нижняя облачность в баллах и высота нижней границы облаков в метрах; квадратными скобками обозначены формы облаков: Ci - перистые, Cs - перисто-слоистые, Cc - перисто-кучевые, Ac - высококучевые, As - высокослоистые, Sc - слоисто-кучевые, Ns - слоисто-дождевые, Cu - кучевые, Cb - кучево-дождевые. Подробнее классификацию облаков см. в Атласе облаков (PDF).
T - Температура воздуха - температура, измеренная на высоте 2 м над землей.
Td - Температура точки росы - температура, при понижении до которой содержащийся в воздухе водяной пар достигнет насыщения.
f - Относительная влажность воздуха - влажноcть воздуха, измеренная на высоте 2 м над землей.
Te - Эффективная температура - температура, которую ощущает одетый по сезону человек в тени. Характеристика душности погоды. При расчете учитывается влияние влажности воздуха и скорости ветра на теплоощущения человека.
Tes - Эффективная температура на солнце - температура, которую ощущает человек, с поправкой на солнечный нагрев. Характеристика знойности погоды. Зависит от высоты солнца над горизонтом, облачности и скорости ветра. Ночью, в пасмурную погоду, а также при ветре 12 м/с и более поправка равна нулю.
P - Атмосферное давление - приведенное к уровню моря атмосферное давление.
Po - Атмосферное давление - измеренное на уровне метеостанции атмосферное давление.
Tmin - Минимальная температура - минимум температуры воздуха на высоте 2 м над землей.
Tmax - Максимальная температура - максимум температуры воздуха на высоте 2 м над землей.
R - Количество осадков - Количество выпавших осадков за период времени, мм. При наведении курсора мыши на число - период времени, за который выпало указанное количество осадков.
R24 - Количество осадков - Количество выпавших осадков за 24 часа, мм.
S - Снежный покров - Высота снежного покрова, см. При наведении курсора мыши на число - состояние снежного покрова и степень покрытия местности в баллах.